Location: Melizzano
(41.1500°N, 14.5000°E)
Time: 05:41:21
(UTC+00:00)

Cosmos 1709 Rocket - Pass Details

Date: 02 October 2021
Orbit: 947 x 1002 km, 82.9° (Epoch: 16 October)

Event Time Altitude Azimuth Distance (km) Brightness Sun altitude
Rises 04:20:15 0° 340° (NNW) 3,629 6.8 -8.3°
Reaches altitude 10° 04:23:07 10° 329° (NNW) 2,683 6.0 -7.7°
Maximum altitude 04:28:02 26° 275° (W) 1,782 4.8 -6.8°
Drops below altitude 10° 04:32:59 10° 221° (SW) 2,692 5.9 -5.9°
Sets 04:35:53 0° 209° (SSW) 3,643 6.7 -5.3°
